Regional Weather Roundup
Issued by NWS

Home | Current Version | Previous Version | Text Only | Print | Product List | Glossary On
Versions: 1 2 3 4 5 6 7 8 9 10 11 12 13 14 15 16 17 18 19 20 21 22 23 24 25 26 27 28 29 30 31 32 33 34 35 36 37 38 39 40 41 42 43 44 45 46 47 48 49 50
000
ASUS44 KFWD 020015
RWRTX
NORTH TEXAS HOURLY WEATHER ROUNDUP
NATIONAL WEATHER SERVICE FORT WORTH TX
700 PM CDT SAT AUG 01 2015

NOTE: "FAIR" INDICATES FEW OR NO CLOUDS BELOW 12,000 FEET WITH NO
SIGNIFICANT WEATHER AND/OR OBSTRUCTIONS TO VISIBILITY.

TXZ118-119-020100-
DALLAS/FORT WORTH METROPLEX

CITY           SKY/WX    TMP DP  RH WIND       PRES   REMARKS
DFW AIRPORT    PTSUNNY   96  51  21 E7        29.92F HX  93
6HR MIN TEMP:  92; 6HR MAX TEMP:  97;

DALLAS LOVE    MOSUNNY   95  56  26 E9        29.92F HX  93
6HR MIN TEMP:  91; 6HR MAX TEMP:  98;

FTW MEACHAM    MOSUNNY   96  51  21 E7        29.93F HX  93
6HR MIN TEMP:  93; 6HR MAX TEMP:  98;

DAL-EXECUTIVE  MOSUNNY   94  53  25 E6        29.93F HX  91
6HR MIN TEMP:  90; 6HR MAX TEMP:  97;

FTW-ALLIANCE   MOSUNNY   94  56  27 NE3       29.94F HX  92
6HR MIN TEMP:  93; 6HR MAX TEMP:  96;

FTW-NAS-JRB    MOSUNNY   94  52  24 E6        29.94F HX  91
6HR MIN TEMP:  92; 6HR MAX TEMP:  98;

FTW-SPINKS     SUNNY     95  50  21 MISG      29.95F HX  92
ARLINGTON      MOSUNNY   96  53  23 E7        29.93F HX  93
6HR MIN TEMP:  93; 6HR MAX TEMP:  99;

GRAND PRAIRIE  SUNNY     93  57  29 E8        29.94F HX  92
ADDISON        MOSUNNY   93  48  21 E7        29.95F HX  90
MESQUITE       SUNNY     95  54  24 E7        29.93F HX  93
LANCASTER      SUNNY     95  49  21 SE7       29.94S HX  91
6HR MIN TEMP:  91; 6HR MAX TEMP:  97;

$$

TXZ091>094-102>105-117-120-121-131>134-020100-
NORTH CENTRAL TEXAS

CITY           SKY/WX    TMP DP  RH WIND       PRES   REMARKS
SHRMAN/DENISON PTSUNNY   93  60  32 E6        29.96F HX  93
6HR MIN TEMP:  92; 6HR MAX TEMP:  97;

GAINESVILLE    MOSUNNY   89  58  34 SE5       29.97F
6HR MIN TEMP:  89; 6HR MAX TEMP:  94;

BOWIE          MOSUNNY   85  66  53 CALM      29.97F
6HR MIN TEMP:  80; 6HR MAX TEMP:  90;

DECATUR        MOSUNNY   88  60  38 CALM      29.97F
6HR MIN TEMP:  84; 6HR MAX TEMP:  91;

DENTON         SUNNY     93  56  28 SE5       29.93F HX  91
6HR MIN TEMP:  91; 6HR MAX TEMP:  95;

MCKINNEY       SUNNY     94  56  27 SE5       29.93F HX  92
6HR MIN TEMP:  91; 6HR MAX TEMP:  96;

GREENVILLE     SUNNY     95  52  23 SE6       29.94S HX  92
ROCKWALL       SUNNY     93  57  29 E8        29.93S HX  92
6HR MIN TEMP:  91; 6HR MAX TEMP:  96;

TERRELL        SUNNY     95  57  27 E8        29.93F HX  94
6HR MIN TEMP:  92; 6HR MAX TEMP:  98;

WAXAHACHIE     MOSUNNY   92  61  34 CALM      29.95F HX  92
6HR MIN TEMP:  91; 6HR MAX TEMP:  97;

CLEBURNE         N/A     95  54  24 E8        29.96S HX  93
GRANBURY       MOSUNNY   95  57  27 NE3       29.95F HX  93
6HR MIN TEMP:  92; 6HR MAX TEMP:  96;

$$

TXZ083>090-098>101-113>116-127>130-139>142-154-155-020100-
WESTERN NORTH TEXAS

CITY           SKY/WX    TMP DP  RH WIND       PRES   REMARKS
WICHITA FALLS  CLOUDY    83  70  64 S6        29.97F
6HR MIN TEMP:  74; 6HR MAX TEMP:  85; 6HR PCP:  0.86;

WF-KICKAPOO    PTSUNNY   85  68  56 S3        29.97F
6HR MIN TEMP:  82; 6HR MAX TEMP:  89;

VERNON         CLOUDY    80  66  61 SW6       29.98F
6HR MIN TEMP:  74; 6HR MAX TEMP:  82;

ABILENE        MOSUNNY   91  65  41 E15       29.98F HX  93
6HR MIN TEMP:  87; 6HR MAX TEMP:  94;

ABILENE-DYESS  MOSUNNY   92  66  42 E12       29.97S HX  95
6HR MIN TEMP:  87; 6HR MAX TEMP:  94;

BRECKENRIDGE   PTSUNNY   89  65  43 E9        29.96S HX  91
6HR MIN TEMP:  87; 6HR MAX TEMP:  93;

GRAHAM         CLOUDY    86  69  56 E6        29.95F HX  90
6HR MIN TEMP:  78; 6HR MAX TEMP:  87;

MINERAL WELLS  PTSUNNY   88  68  51 NE5       29.94F HX  91
6HR MIN TEMP:  86; 6HR MAX TEMP:  92;

STEPHENVILLE   SUNNY     90  59  34 NE5       29.99F
6HR MIN TEMP:  89; 6HR MAX TEMP:  92;

COMANCHE       SUNNY     92  60  34 E5        29.97F HX  91
6HR MIN TEMP:  90; 6HR MAX TEMP:  94;

BROWNWOOD      SUNNY     91  63  38 NE9G17    29.96F HX  92
COLEMAN        SUNNY     92  64  39 E10       29.98F HX  93
6HR MIN TEMP:  90; 6HR MAX TEMP:  94;

BRADY          SUNNY     95  61  31 E9        29.98R HX  95
$$

TXZ143>147-156>162-174-175-020100-
CENTRAL TEXAS

CITY           SKY/WX    TMP DP  RH WIND       PRES   REMARKS
WACO           SUNNY     95  55  26 E10       29.92F HX  93
6HR MIN TEMP:  93; 6HR MAX TEMP:  99;

WACO-TSTC      SUNNY     95  55  26 E5        29.92F HX  93
WACO-MCGREGOR  SUNNY     97  54  23 E12       29.93S HX  94
6HR MIN TEMP:  93; 6HR MAX TEMP:  99;

HILLSBORO      SUNNY     94  52  24 NE7       29.93F HX  91
6HR MIN TEMP:  92; 6HR MAX TEMP:  97;

CORSICANA      SUNNY     95  56  26 E9        29.93F HX  93
6HR MIN TEMP:  94; 6HR MAX TEMP:  98;

MEXIA          SUNNY     94  59  31 E10G20    29.92S HX  93
6HR MIN TEMP:  92; 6HR MAX TEMP:  97;

HEARNE         SUNNY     95  61  32 E5        29.91S HX  96
6HR MIN TEMP:  92; 6HR MAX TEMP:  98;

CAMERON        SUNNY     95  59  30 E3        29.91S HX  94
6HR MIN TEMP:  91; 6HR MAX TEMP:  98;

TEMPLE         SUNNY     95  54  24 E9        29.93S HX  93
6HR MIN TEMP:  93; 6HR MAX TEMP:  99;

KILLEEN        SUNNY     94  54  25 E10       29.94S HX  92
6HR MIN TEMP:  90; 6HR MAX TEMP:  96;

KILLEEN-SKYLRK SUNNY     93  55  27 E9        29.93S HX  91
6HR MIN TEMP:  90; 6HR MAX TEMP:  95;

FORT HOOD      SUNNY     94  55  26 E10       29.92F HX  92
6HR MIN TEMP:  91; 6HR MAX TEMP:  96;

GATESVILLE     SUNNY     95  52  23 E3        29.96S HX  92
HAMILTON       SUNNY     94  54  26 E7        29.98S HX  91
6HR MIN TEMP:  91; 6HR MAX TEMP:  96;

LAMPASAS       SUNNY     96  58  28 E8        29.95S HX  95
6HR MIN TEMP:  91; 6HR MAX TEMP:  96;

$$

TXZ095>097-106>112-122>126-135>138-148>153-164>167-020100-
EAST TEXAS

CITY           SKY/WX    TMP DP  RH WIND       PRES   REMARKS
PARIS          SUNNY     93  57  29 E8        29.95F HX  92
6HR MIN TEMP:  91; 6HR MAX TEMP:  95;

SULPHUR SPRNGS SUNNY     95  53  24 E9        29.96S HX  92
6HR MIN TEMP:  92; 6HR MAX TEMP:  97;

MOUNT PLEASANT SUNNY     94  55  26 E7        29.95F HX  91
6HR MIN TEMP:  92; 6HR MAX TEMP:  97;

GILMER         SUNNY     92  57  30 NE6       29.94F HX  90
6HR MIN TEMP:  89; 6HR MAX TEMP:  95;

MINEOLA        SUNNY     93  50  22 CALM      29.94F HX  90
TYLER          SUNNY     96  56  26 E10       29.93F HX  94
6HR MIN TEMP:  92; 6HR MAX TEMP:  98;

LONGVIEW       SUNNY     95  56  26 E10       29.92F HX  93
6HR MIN TEMP:  93; 6HR MAX TEMP:  99;

MARSHALL       SUNNY     95  60  31 NE5       29.96S HX  94
6HR MIN TEMP:  95; 6HR MAX TEMP:  99;

ATHENS         SUNNY     93  55  27 E5        29.92S HX  91
PALESTINE      SUNNY     95  55  26 NE7       29.93F HX  93
JACKSONVILLE   SUNNY     94  52  23 E7        29.96S HX  91
HENDERSON      SUNNY     94  53  24 E7        29.94S HX  91
6HR MIN TEMP:  92; 6HR MAX TEMP:  96;

CENTER         FAIR      94  55  26 NE9G16    29.92S HX  92
6HR MIN TEMP:  92; 6HR MAX TEMP:  98;

NACOGDOCHES    SUNNY     93  55  27 E8        29.91F HX  91
6HR MIN TEMP:  91; 6HR MAX TEMP:  97;

LUFKIN         SUNNY     92  58  31 NE5       29.91F HX  91
6HR MIN TEMP:  91; 6HR MAX TEMP:  96;

$$

SUPPLEMENTAL OBSERVATIONS (CENTRAL)

CITY           SKY/WX    TMP DP  RH WIND       PRES   REMARKS
LAKE TEXOMA      N/A     90  61  37 E2          N/A
CADDO GRASSLND   N/A     90  63  40 E2          N/A  HX  90
PAT MAYSE LAKE   N/A     91  57  31 NE2         N/A  HX  90
GREENVILLE       N/A     93  52  24 E5          N/A  HX  90
CEDAR HILL       N/A     97  55  24 E1          N/A  HX  95
ATHENS           N/A     93  54  26 E5          N/A  HX  91
LAKE LIMESTONE   N/A     95  55  26 E6          N/A  HX  93


USA.gov is the U.S. government's official web portal to all federal, state and local government web resources and services.